Regional Weather Roundup
Issued by NWS Sterling, VA

Home | Current Version | Previous Version | Graphics & Text | Print | Product List | Glossary On
Versions: 1 2 3 4 5 6 7 8 9 10 11 12 13 14 15 16 17 18 19 20 21 22 23 24 25 26 27
000
ASUS41 KLWX 200410
RWRLWX

REGIONAL WEATHER ROUNDUP
NATIONAL WEATHER SERVICE BALTIMORE MD/WASHINGTON DC
1100 PM EST THU JAN 19 2017

Note: "FAIR" indicates few or no clouds below 12,000 feet
with no significant weather and/or obstructions to visibility.
 TC=TEMPERATURE CELSIUS

 * =Non NWS site. Station does not report precipitation (e.g. rain,
    snow, etc.), thunder, or fog.

DCZ001-MDZ009-015-VAZ040>042-051-053>054-200500-
WASHINGTON METRO

CITY           SKY/WX    TMP DP  RH WIND       PRES   REMARKS
WASHINGTON NAT CLOUDY    41  39  93 CALM      30.04R
DULLES         PTCLDY    32  30  92 CALM      30.01S
ANDREWS AFB    CLEAR     36  33  88 CALM      30.02R
FT BELVOIR     CLOUDY    33  31  94 CALM      30.02S
QUANTICO       MOCLDY    37  36  96 CALM      30.04S
COLLEGE PARK*  PTCLDY    34  32  93 CALM      30.02F
LEESBURG*      CLOUDY    36  36 100 CALM      30.02S
GAITHERSBURG*  CLOUDY    34  28  80 CALM      30.05S

$$

MDZ006>007-011-014-200500-
BALTIMORE METRO

CITY           SKY/WX    TMP DP  RH WIND       PRES   REMARKS
BWI AIRPORT    CLOUDY    37  34  89 CALM      30.03S
MD SCIENCE CTR   N/A     43  34  70 MISG      30.04R
ANNAPOLIS      CLOUDY    38  35  89 CALM      30.04R
FORT MEADE*    PTCLDY    32  32 100 CALM      30.06S

$$

MDZ012-015-019>023-200500-
MARYLAND EASTERN SHORE

CITY           SKY/WX    TMP DP  RH WIND       PRES   REMARKS
OCEAN CITY     CLOUDY    33  33 100 CALM      30.05S FOG
SALISBURY      CLOUDY    33  31  92 CALM      30.05R
BAY BRIDGE AP* CLOUDY    37  34  87 E3        30.05R
CAMBRIDGE*     CLOUDY    32  32 100 CALM      30.04S
EASTON*        CLOUDY    36  33  90 CALM      30.08S

$$

MDZ017>025-200500-
SOUTHERN MARYLAND

CITY           SKY/WX    TMP DP  RH WIND       PRES   REMARKS
PATUXENT RIVER PTCLDY    33  32  96 CALM      30.03S
ST INIGOES     CLOUDY    33  32  96 CALM      30.03S
LEONARDTOWN*   CLEAR     34  32  93 CALM      30.04S

$$

MDZ003>005-200500-
NORTH CENTRAL MARYLAND

CITY           SKY/WX    TMP DP  RH WIND       PRES   REMARKS
FREDERICK*     CLOUDY    30  30 100 CALM      30.05S
HAGERSTOWN APT CLOUDY    37  31  78 NE5       30.01R
WESTMINSTER*     N/A     34  32  93 E3        30.02R

$$

MDZ501>502-200500-
WESTERN MARYLAND

CITY           SKY/WX    TMP DP  RH WIND       PRES   REMARKS
OAKLAND*         N/A     34  32  93 SE9       29.92S WCI  26
CUMBERLAND*    CLOUDY    36  34  93 CALM      30.03R

$$

VAZ025>031-200500-
SHENANDOAH VALLEY

CITY           SKY/WX    TMP DP  RH WIND       PRES   REMARKS
WINCHESTER*    PTCLDY    34  32  93 CALM      29.99S
FRONT ROYAL*   PTCLDY    37  36  93 CALM      29.98R
LURAY*         MOCLDY    39  39 100 CALM      30.00R
NEW MARKET*    MOCLDY    38  36  93 CALM      29.99R
STAUNTON*      MOCLDY    39  37  91 CALM      30.00S
WAYNESBORO*    MOCLDY    44  37  78 CALM      29.98S

$$

WVZ021-048>050-054>055-200500-
EASTERN WEST VIRGINIA PANHANDLE

CITY           SKY/WX    TMP DP  RH WIND       PRES   REMARKS
MARTINSBURG    PTCLDY    32  30  92 CALM      29.99F
PETERSBURG*    CLOUDY    37  37  97 CALM      29.99S

$$

VAZ036>039-050-200500-
CENTRAL FOOTHILLS

CITY           SKY/WX    TMP DP  RH WIND       PRES   REMARKS
CHARLOTTESVILL MOCLDY    44  38  79 CALM      30.01R
CULPEPER*      CLOUDY    36  35  96 CALM      30.04R
ORANGE*          N/A     41  39  93 CALM      30.04R
GORDONSVILLE*  CLOUDY    39  38  96 CALM      30.02R
WARRENTON*     CLOUDY    35  32  90 CALM      30.02R

$$

VAZ055>057-200500-
NORTH AND CENTRAL PIEDMONT

CITY           SKY/WX    TMP DP  RH WIND       PRES   REMARKS
FREDERICKSBRG* CLOUDY    39  38  94 CALM      30.02R
STAFFORD*      CLOUDY    34  34 100 CALM      30.06R

$$

NCZ024-NYZ072-PAZ021-071-VAZ022-071-200500-
OTHER REGIONAL OBSERVATIONS

CITY           SKY/WX    TMP DP  RH WIND       PRES   REMARKS
NEW YORK CITY  CLOUDY    43  33  68 VRB3      30.04R
PHILADELPHIA   CLOUDY    38  33  82 CALM      30.05F
PITTSBURGH     CLOUDY    32  32 100 CALM      29.92F
ROANOKE        PTCLDY    46  38  73 CALM      29.98S
RICHMOND       CLOUDY    41  38  89 S3        30.03R
RALEIGH        CLOUDY    49  40  71 CALM      30.00R

$$

ANZ530>537-200500-
MARINE OBSERVATIONS

STATION/POSITION TIME  TEMP    WIND        PRES
                       AIR SEA DIR/SP/G
                 (UTC) (F)     (DEG/KT/KT) (MB)
THOMAS PT LIGHT  0400   41 39  110/  6/  6   N/A
BALT KEY BRIDGE  0348   40     110/  3/  4 1017.4R
COVE POINT       0342   42     200/  3/  4 1017.7R
LEWISETTA        0342   41 44   CALM  /  1 1016.7R
SOLOMONS ISLAND  0342   38 41  290/  1/  2   N/A
PINEY POINT      0348          100/  4/  4   N/A

$$





USA.gov is the U.S. government's official web portal to all federal, state and local government web resources and services.